Location: Milo
(50.5667°N, 112.8833°W)
Time: 10:07:31
(UTC+00:00)

X-37B - Visible Passes

Search period start: 02 December 2021 00:00
Search period end: 12 December 2021 00:00
Orbit: 330 x 341 km, 45.0° (Epoch: 20 November)

Date Brightness Start Highest point End Pass type
(mag) Time Alt. Az. Time Alt. Az. Time Alt. Az.
09 Dec 2.8 01:12:04 10° S 01:13:29 13° SSE 01:13:51 13° SSE visible
10 Dec 2.4 01:31:26 10° SW 01:33:25 20° S 01:33:25 20° S visible
11 Dec 3.0 00:17:30 10° S 00:18:56 13° SSE 00:20:22 10° SE visible
11 Dec 2.6 01:51:23 10° SW 01:52:57 21° SSW 01:52:57 21° SSW visible
